Time,TemperatureF,DewpointF,PressureIn,WindDirection,WindDirectionDegrees,WindSpeedMPH,WindSpeedGustMPH,Humidity,HourlyPrecipIn,Conditions,Clouds,dailyrainin,SoftwareType,DateUTC
2013-02-13 00:00:00,40.6,39.3,29.90,East,90,0.0,0.0,95,0.04,,---,0.08,VWS V14.00,2013-02-13 05:00:00,
2013-02-13 00:05:00,40.6,39.3,29.90,East,90,0.0,0.0,95,0.04,,---,0.00,VWS V14.00,2013-02-13 05:05:00,
2013-02-13 00:10:00,40.6,39.5,29.88,East,90,0.0,0.0,96,0.04,,---,0.00,VWS V14.00,2013-02-13 05:10:00,
2013-02-13 00:15:00,40.6,39.5,29.87,East,90,0.0,0.0,96,0.04,,---,0.00,VWS V14.00,2013-02-13 05:15:00,
2013-02-13 00:20:00,40.6,39.5,29.88,East,90,0.0,0.0,96,0.02,,---,0.00,VWS V14.00,2013-02-13 05:20:00,
2013-02-13 00:25:00,40.6,39.5,29.88,East,90,0.0,0.0,96,0.02,,---,0.00,VWS V14.00,2013-02-13 05:25:00,
2013-02-13 00:30:00,40.6,39.5,29.86,East,90,0.0,0.0,96,0.02,,---,0.00,VWS V14.00,2013-02-13 05:30:00,
2013-02-13 00:35:00,40.6,39.5,29.87,East,90,0.0,0.0,96,0.02,,---,0.00,VWS V14.00,2013-02-13 05:35:00,
2013-02-13 00:40:00,40.6,39.5,29.85,East,90,0.0,0.0,96,0.02,,---,0.00,VWS V14.00,2013-02-13 05:40:00,
2013-02-13 00:45:00,40.6,39.5,29.86,East,90,0.0,0.0,96,0.02,,---,0.00,VWS V14.00,2013-02-13 05:45:00,
2013-02-13 00:50:00,40.4,39.3,29.87,East,90,0.0,0.0,96,0.00,,---,0.00,VWS V14.00,2013-02-13 05:50:00,
2013-02-13 00:55:00,40.4,39.3,29.87,East,90,0.0,0.0,96,0.00,,---,0.00,VWS V14.00,2013-02-13 05:55:00,
2013-02-13 01:00:00,40.2,39.2,29.86,East,90,0.0,0.0,96,0.00,,---,0.00,VWS V14.00,2013-02-13 06:00:00,
2013-02-13 01:05:00,40.2,39.2,29.86,East,90,0.6,0.6,96,0.02,,---,0.02,VWS V14.00,2013-02-13 06:05:00,
2013-02-13 01:10:00,40.2,39.4,29.86,East,90,1.1,1.1,97,0.02,,---,0.02,VWS V14.00,2013-02-13 06:10:00,
2013-02-13 01:15:00,40.1,39.3,29.85,East,90,0.0,1.1,97,0.02,,---,0.02,VWS V14.00,2013-02-13 06:15:00,
2013-02-13 01:21:00,40.1,39.3,29.85,East,90,0.0,0.0,97,0.02,,---,0.02,VWS V14.00,2013-02-13 06:21:00,
2013-02-13 01:26:00,40.1,39.3,29.85,East,90,0.0,0.6,97,0.02,,---,0.02,VWS V14.00,2013-02-13 06:26:00,
2013-02-13 01:31:00,40.1,39.3,29.84,East,90,0.0,0.0,97,0.02,,---,0.02,VWS V14.00,2013-02-13 06:31:00,
2013-02-13 01:36:00,40.1,39.3,29.84,East,90,0.0,0.0,97,0.02,,---,0.02,VWS V14.00,2013-02-13 06:36:00,
2013-02-13 01:41:00,40.1,39.3,29.83,East,90,0.0,0.0,97,0.02,,---,0.02,VWS V14.00,2013-02-13 06:41:00,
2013-02-13 01:46:00,39.9,39.1,29.84,East,90,0.0,0.4,97,0.02,,---,0.02,VWS V14.00,2013-02-13 06:46:00,
2013-02-13 01:51:00,39.9,39.1,29.84,East,90,0.0,0.0,97,0.02,,---,0.02,VWS V14.00,2013-02-13 06:51:00,
2013-02-13 01:56:00,39.9,39.1,29.84,East,90,0.0,0.0,97,0.02,,---,0.02,VWS V14.00,2013-02-13 06:56:00,
2013-02-13 02:01:00,39.9,39.1,29.84,East,90,0.0,0.0,97,0.02,,---,0.02,VWS V14.00,2013-02-13 07:01:00,
2013-02-13 02:06:00,39.9,39.1,29.83,East,90,0.0,0.0,97,0.02,,---,0.02,VWS V14.00,2013-02-13 07:06:00,
2013-02-13 02:11:00,40.1,39.3,29.83,East,90,0.0,0.0,97,0.00,,---,0.02,VWS V14.00,2013-02-13 07:11:00,
2013-02-13 02:16:00,39.9,39.1,29.82,East,90,0.0,0.0,97,0.00,,---,0.02,VWS V14.00,2013-02-13 07:16:00,
2013-02-13 02:21:00,40.1,39.3,29.82,East,90,0.0,0.0,97,0.00,,---,0.02,VWS V14.00,2013-02-13 07:21:00,
2013-02-13 02:26:00,39.9,39.1,29.82,East,90,0.0,0.0,97,0.00,,---,0.02,VWS V14.00,2013-02-13 07:26:00,
2013-02-13 02:31:00,39.9,39.1,29.82,East,90,0.0,0.0,97,0.00,,---,0.02,VWS V14.00,2013-02-13 07:31:00,
2013-02-13 02:36:00,39.9,39.1,29.82,East,90,0.0,0.0,97,0.00,,---,0.02,VWS V14.00,2013-02-13 07:36:00,
2013-02-13 02:41:00,39.9,39.1,29.82,East,90,0.0,0.0,97,0.02,,---,0.04,VWS V14.00,2013-02-13 07:41:00,
2013-02-13 02:46:00,40.1,39.3,29.82,East,90,0.0,0.0,97,0.02,,---,0.04,VWS V14.00,2013-02-13 07:46:00,
2013-02-13 02:51:00,40.1,39.3,29.82,East,90,0.0,0.0,97,0.02,,---,0.04,VWS V14.00,2013-02-13 07:51:00,
2013-02-13 02:56:00,40.1,39.3,29.82,East,90,0.0,0.0,97,0.02,,---,0.04,VWS V14.00,2013-02-13 07:56:00,
2013-02-13 03:01:00,40.1,39.3,29.82,East,90,0.0,0.0,97,0.02,,---,0.04,VWS V14.00,2013-02-13 08:01:00,
2013-02-13 03:06:00,40.1,39.3,29.82,East,90,0.0,0.0,97,0.02,,---,0.04,VWS V14.00,2013-02-13 08:06:00,
2013-02-13 03:11:00,40.1,39.3,29.82,East,90,0.0,0.0,97,0.02,,---,0.04,VWS V14.00,2013-02-13 08:11:00,
2013-02-13 03:16:00,40.1,39.3,29.81,East,90,0.0,0.0,97,0.02,,---,0.04,VWS V14.00,2013-02-13 08:16:00,
2013-02-13 03:21:00,39.9,39.1,29.81,East,90,0.0,0.0,97,0.02,,---,0.22,VWS V14.00,2013-02-13 08:21:00,
2013-02-13 03:26:00,39.9,39.1,29.81,East,90,0.0,0.0,97,0.02,,---,0.04,VWS V14.00,2013-02-13 08:26:00,
2013-02-13 03:31:00,39.9,39.1,29.81,East,90,0.0,0.0,97,0.02,,---,0.04,VWS V14.00,2013-02-13 08:31:00,
2013-02-13 03:36:00,39.9,39.1,29.81,East,90,0.0,0.0,97,0.02,,---,0.04,VWS V14.00,2013-02-13 08:36:00,
2013-02-13 03:41:00,39.9,39.1,29.80,East,90,0.0,0.0,97,0.00,,---,0.04,VWS V14.00,2013-02-13 08:41:00,
2013-02-13 03:46:00,39.9,39.1,29.79,East,90,0.0,0.0,97,0.00,,---,0.04,VWS V14.00,2013-02-13 08:46:00,
2013-02-13 03:51:00,39.9,39.1,29.79,East,90,0.0,0.0,97,0.00,,---,0.04,VWS V14.00,2013-02-13 08:51:00,
2013-02-13 03:56:00,39.9,39.1,29.79,East,90,0.0,0.0,97,0.00,,---,0.04,VWS V14.00,2013-02-13 08:56:00,
2013-02-13 04:01:00,39.9,39.1,29.79,East,90,0.0,0.0,97,0.00,,---,0.04,VWS V14.00,2013-02-13 09:01:00,
2013-02-13 04:06:00,39.9,39.1,29.79,East,90,0.0,0.0,97,0.00,,---,0.04,VWS V14.00,2013-02-13 09:06:00,
2013-02-13 04:11:00,39.9,39.1,29.79,East,90,0.0,0.0,97,0.00,,---,0.04,VWS V14.00,2013-02-13 09:11:00,
2013-02-13 04:16:00,39.9,39.4,29.78,East,90,0.0,0.0,98,0.00,,---,0.04,VWS V14.00,2013-02-13 09:16:00,
2013-02-13 04:21:00,39.7,39.2,29.78,East,90,0.0,0.0,98,0.00,,---,0.04,VWS V14.00,2013-02-13 09:21:00,
2013-02-13 04:26:00,39.7,39.2,29.78,East,90,0.0,0.0,98,0.00,,---,0.04,VWS V14.00,2013-02-13 09:26:00,
2013-02-13 04:31:00,39.7,39.2,29.78,East,90,0.0,0.0,98,0.00,,---,0.04,VWS V14.00,2013-02-13 09:31:00,
2013-02-13 04:36:00,39.7,39.2,29.77,East,90,0.0,0.0,98,0.00,,---,0.04,VWS V14.00,2013-02-13 09:36:00,
2013-02-13 04:41:00,39.7,39.2,29.78,East,90,0.0,0.0,98,0.00,,---,0.04,VWS V14.00,2013-02-13 09:41:00,
2013-02-13 04:46:00,39.7,39.2,29.78,East,90,0.0,0.0,98,0.00,,---,0.04,VWS V14.00,2013-02-13 09:46:00,
2013-02-13 04:51:00,39.7,39.2,29.77,East,90,0.0,0.0,98,0.00,,---,0.04,VWS V14.00,2013-02-13 09:51:00,
2013-02-13 04:56:00,39.7,39.2,29.78,East,90,0.0,0.0,98,0.00,,---,0.04,VWS V14.00,2013-02-13 09:56:00,
2013-02-13 05:01:00,39.7,39.2,29.79,East,90,0.0,0.0,98,0.00,,---,0.04,VWS V14.00,2013-02-13 10:01:00,
2013-02-13 05:06:00,39.7,39.2,29.78,East,90,0.0,0.0,98,0.00,,---,0.04,VWS V14.00,2013-02-13 10:06:00,
2013-02-13 05:11:00,39.7,39.2,29.78,East,90,0.0,0.0,98,0.00,,---,0.04,VWS V14.00,2013-02-13 10:11:00,
2013-02-13 05:16:00,39.7,39.2,29.78,East,90,0.0,0.0,98,0.00,,---,0.04,VWS V14.00,2013-02-13 10:16:00,
2013-02-13 05:21:00,39.7,39.2,29.78,East,90,0.0,0.0,98,0.00,,---,0.04,VWS V14.00,2013-02-13 10:21:00,
2013-02-13 05:26:00,39.7,39.2,29.77,East,90,0.0,0.0,98,0.00,,---,0.04,VWS V14.00,2013-02-13 10:26:00,
2013-02-13 05:31:00,39.7,39.2,29.77,East,90,0.0,0.0,98,0.00,,---,0.04,VWS V14.00,2013-02-13 10:31:00,
2013-02-13 05:36:00,39.5,39.0,29.77,East,90,0.0,0.0,98,0.00,,---,0.04,VWS V14.00,2013-02-13 10:36:00,
2013-02-13 05:41:00,39.5,39.0,29.77,East,90,0.0,0.0,98,0.00,,---,0.04,VWS V14.00,2013-02-13 10:41:00,
2013-02-13 05:46:00,39.7,39.2,29.76,East,90,0.0,0.0,98,0.00,,---,0.04,VWS V14.00,2013-02-13 10:46:00,
2013-02-13 05:51:00,39.5,39.0,29.76,East,90,0.0,0.0,98,0.00,,---,0.04,VWS V14.00,2013-02-13 10:51:00,
2013-02-13 05:56:00,39.5,39.0,29.77,East,90,0.0,0.0,98,0.00,,---,0.04,VWS V14.00,2013-02-13 10:56:00,
2013-02-13 06:01:00,39.5,39.0,29.77,East,90,0.0,0.0,98,0.00,,---,0.04,VWS V14.00,2013-02-13 11:01:00,
2013-02-13 06:07:00,39.7,39.2,29.76,East,90,0.0,0.0,98,0.00,,---,0.04,VWS V14.00,2013-02-13 11:07:00,
2013-02-13 06:12:00,39.5,39.0,29.76,East,90,0.0,0.0,98,0.00,,---,0.04,VWS V14.00,2013-02-13 11:12:00,
2013-02-13 06:17:00,39.5,39.0,29.76,East,90,0.0,0.0,98,0.00,,---,0.04,VWS V14.00,2013-02-13 11:17:00,
2013-02-13 06:22:00,39.5,39.0,29.75,East,90,0.0,0.0,98,0.00,,---,0.04,VWS V14.00,2013-02-13 11:22:00,
2013-02-13 06:27:00,39.5,39.0,29.75,East,90,0.0,0.0,98,0.00,,---,0.04,VWS V14.00,2013-02-13 11:27:00,
2013-02-13 06:32:00,39.5,39.0,29.76,East,90,0.0,0.0,98,0.00,,---,0.04,VWS V14.00,2013-02-13 11:32:00,
2013-02-13 06:37:00,39.5,39.0,29.74,East,90,0.0,0.0,98,0.00,,---,0.04,VWS V14.00,2013-02-13 11:37:00,
2013-02-13 06:42:00,39.5,39.0,29.74,East,90,0.0,0.0,98,0.00,,---,0.04,VWS V14.00,2013-02-13 11:42:00,
2013-02-13 06:47:00,39.5,39.0,29.74,East,90,0.0,0.0,98,0.00,,---,0.04,VWS V14.00,2013-02-13 11:47:00,
2013-02-13 06:52:00,39.5,39.0,29.74,East,90,0.0,0.0,98,0.00,,---,0.04,VWS V14.00,2013-02-13 11:52:00,
2013-02-13 06:57:00,39.5,39.0,29.75,East,90,0.0,0.0,98,0.00,,---,0.04,VWS V14.00,2013-02-13 11:57:00,
2013-02-13 07:02:00,39.5,39.0,29.76,East,90,0.0,0.0,98,0.00,,---,0.04,VWS V14.00,2013-02-13 12:02:00,
2013-02-13 07:07:00,39.5,39.0,29.76,East,90,0.0,0.0,98,0.00,,---,0.04,VWS V14.00,2013-02-13 12:07:00,
2013-02-13 07:12:00,39.5,39.0,29.75,East,90,0.0,0.0,98,0.00,,---,0.04,VWS V14.00,2013-02-13 12:12:00,
2013-02-13 07:17:00,39.5,39.0,29.75,East,90,0.0,0.0,98,0.00,,---,0.04,VWS V14.00,2013-02-13 12:17:00,
2013-02-13 07:22:00,39.3,38.8,29.75,East,90,0.0,0.0,98,0.00,,---,0.04,VWS V14.00,2013-02-13 12:22:00,
2013-02-13 07:27:00,39.3,38.8,29.77,East,90,0.0,0.0,98,0.00,,---,0.04,VWS V14.00,2013-02-13 12:27:00,
2013-02-13 07:32:00,39.5,39.0,29.77,East,90,0.0,0.0,98,0.00,,---,0.04,VWS V14.00,2013-02-13 12:32:00,
2013-02-13 07:37:00,39.5,39.2,29.77,East,90,0.0,0.0,99,0.00,,---,0.04,VWS V14.00,2013-02-13 12:37:00,
2013-02-13 07:42:00,39.7,39.4,29.76,East,90,0.0,0.0,99,0.00,,---,0.04,VWS V14.00,2013-02-13 12:42:00,
2013-02-13 07:47:00,39.5,39.2,29.74,East,90,0.0,0.0,99,0.00,,---,0.04,VWS V14.00,2013-02-13 12:47:00,
2013-02-13 07:52:00,39.5,39.2,29.76,East,90,0.0,0.0,99,0.00,,---,0.04,VWS V14.00,2013-02-13 12:52:00,
2013-02-13 07:57:00,39.5,39.2,29.77,East,90,0.0,0.0,99,0.00,,---,0.04,VWS V14.00,2013-02-13 12:57:00,
2013-02-13 08:02:00,39.7,39.4,29.76,East,90,0.0,0.0,99,0.00,,---,0.04,VWS V14.00,2013-02-13 13:02:00,
2013-02-13 08:07:00,39.7,39.4,29.74,East,90,0.0,0.0,99,0.00,,---,0.04,VWS V14.00,2013-02-13 13:07:00,
2013-02-13 08:12:00,39.7,39.4,29.73,East,90,0.0,0.0,99,0.00,,---,0.04,VWS V14.00,2013-02-13 13:12:00,
2013-02-13 08:17:00,39.7,39.4,29.76,East,90,0.0,0.0,99,0.00,,---,0.04,VWS V14.00,2013-02-13 13:17:00,
2013-02-13 08:22:00,39.9,39.6,29.74,East,90,0.0,0.0,99,0.00,,---,0.04,VWS V14.00,2013-02-13 13:22:00,
2013-02-13 08:27:00,39.9,39.6,29.74,East,90,0.0,0.0,99,0.00,,---,0.04,VWS V14.00,2013-02-13 13:27:00,
2013-02-13 08:32:00,39.9,39.6,29.74,East,90,0.0,0.0,99,0.00,,---,0.04,VWS V14.00,2013-02-13 13:32:00,
2013-02-13 08:37:00,40.1,39.8,29.74,East,90,0.0,0.0,99,0.00,,---,0.04,VWS V14.00,2013-02-13 13:37:00,
2013-02-13 08:42:00,39.9,39.6,29.73,East,90,0.0,0.0,99,0.00,,---,0.04,VWS V14.00,2013-02-13 13:42:00,
2013-02-13 08:47:00,40.1,39.8,29.75,East,90,0.0,0.0,99,0.00,,---,0.04,VWS V14.00,2013-02-13 13:47:00,
2013-02-13 08:52:00,40.2,39.9,29.75,East,90,0.0,0.0,99,0.00,,---,0.04,VWS V14.00,2013-02-13 13:52:00,
2013-02-13 08:57:00,40.2,39.9,29.75,East,90,0.0,0.0,99,0.00,,---,0.04,VWS V14.00,2013-02-13 13:57:00,
2013-02-13 09:02:00,40.2,39.9,29.75,East,90,0.0,0.0,99,0.00,,---,0.04,VWS V14.00,2013-02-13 14:02:00,
2013-02-13 09:07:00,40.2,39.9,29.75,East,90,0.0,0.0,99,0.00,,---,0.04,VWS V14.00,2013-02-13 14:07:00,
2013-02-13 09:12:00,40.2,39.9,29.75,East,90,0.0,0.0,99,0.00,,---,0.04,VWS V14.00,2013-02-13 14:12:00,
2013-02-13 09:17:00,40.4,40.1,29.74,East,90,0.0,0.0,99,0.00,,---,0.04,VWS V14.00,2013-02-13 14:17:00,
2013-02-13 09:22:00,40.6,40.3,29.73,East,90,0.4,0.4,99,0.00,,---,0.04,VWS V14.00,2013-02-13 14:22:00,
2013-02-13 09:27:00,40.6,40.3,29.73,East,90,0.0,0.4,99,0.00,,---,0.04,VWS V14.00,2013-02-13 14:27:00,
2013-02-13 09:32:00,40.6,40.3,29.74,East,90,0.0,0.0,99,0.00,,---,0.04,VWS V14.00,2013-02-13 14:32:00,
2013-02-13 09:37:00,40.8,40.5,29.73,East,90,0.0,1.7,99,0.00,,---,0.04,VWS V14.00,2013-02-13 14:37:00,
2013-02-13 09:42:00,40.6,40.3,29.74,East,90,0.0,0.0,99,0.00,,---,0.04,VWS V14.00,2013-02-13 14:42:00,
2013-02-13 09:47:00,40.6,40.3,29.74,East,90,0.0,0.0,99,0.02,,---,0.06,VWS V14.00,2013-02-13 14:47:00,
2013-02-13 09:53:00,40.6,40.3,29.74,East,90,0.0,0.0,99,0.02,,---,0.06,VWS V14.00,2013-02-13 14:53:00,
2013-02-13 09:58:00,40.6,40.3,29.73,East,90,0.0,0.0,99,0.02,,---,0.06,VWS V14.00,2013-02-13 14:58:00,
2013-02-13 10:03:00,40.6,40.3,29.73,East,90,0.0,0.0,99,0.02,,---,0.06,VWS V14.00,2013-02-13 15:03:00,
2013-02-13 10:08:00,40.8,40.5,29.73,East,90,0.0,0.0,99,0.02,,---,0.06,VWS V14.00,2013-02-13 15:08:00,
2013-02-13 10:13:00,40.8,40.5,29.73,East,90,0.0,0.0,99,0.02,,---,0.06,VWS V14.00,2013-02-13 15:13:00,
2013-02-13 10:18:00,41.1,40.8,29.73,East,90,0.0,0.0,99,0.02,,---,0.06,VWS V14.00,2013-02-13 15:18:00,
2013-02-13 10:23:00,41.5,41.2,29.72,East,90,0.0,0.0,99,0.02,,---,0.06,VWS V14.00,2013-02-13 15:23:00,
2013-02-13 10:28:00,41.5,41.2,29.72,ESE,112,0.0,0.0,99,0.02,,---,0.06,VWS V14.00,2013-02-13 15:28:00,
2013-02-13 10:33:00,41.7,41.4,29.71,ESE,112,0.0,0.0,99,0.02,,---,0.06,VWS V14.00,2013-02-13 15:33:00,
2013-02-13 10:38:00,41.7,41.4,29.72,ESE,112,0.0,0.0,99,0.02,,---,0.06,VWS V14.00,2013-02-13 15:38:00,
2013-02-13 10:43:00,41.7,41.4,29.72,ESE,112,0.0,0.0,99,0.02,,---,0.06,VWS V14.00,2013-02-13 15:43:00,
2013-02-13 10:48:00,41.9,41.6,29.72,ESE,112,0.0,0.0,99,0.02,,---,0.06,VWS V14.00,2013-02-13 15:48:00,
2013-02-13 10:53:00,41.9,41.6,29.71,ESE,112,0.0,0.0,99,0.00,,---,0.06,VWS V14.00,2013-02-13 15:53:00,
2013-02-13 10:58:00,42.0,41.7,29.70,ESE,112,0.0,0.0,99,0.00,,---,0.06,VWS V14.00,2013-02-13 15:58:00,
2013-02-13 11:03:00,42.0,41.7,29.72,ESE,112,0.0,0.0,99,0.00,,---,0.06,VWS V14.00,2013-02-13 16:03:00,
2013-02-13 11:08:00,42.4,42.1,29.72,ESE,112,0.0,0.0,99,0.00,,---,0.06,VWS V14.00,2013-02-13 16:08:00,
2013-02-13 11:13:00,42.4,42.1,29.72,ESE,112,0.0,0.0,99,0.00,,---,0.06,VWS V14.00,2013-02-13 16:13:00,
2013-02-13 11:18:00,42.2,41.9,29.71,ESE,112,0.0,0.0,99,0.00,,---,0.06,VWS V14.00,2013-02-13 16:18:00,
2013-02-13 11:23:00,42.0,41.5,29.70,ESE,112,0.0,0.4,98,0.00,,---,0.06,VWS V14.00,2013-02-13 16:23:00,
2013-02-13 11:28:00,42.4,41.9,29.70,ESE,112,0.0,0.4,98,0.00,,---,0.06,VWS V14.00,2013-02-13 16:28:00,
2013-02-13 11:33:00,42.4,41.9,29.69,ESE,112,0.0,0.0,98,0.00,,---,0.06,VWS V14.00,2013-02-13 16:33:00,
2013-02-13 11:38:00,42.6,42.1,29.70,ESE,112,0.0,0.0,98,0.00,,---,0.06,VWS V14.00,2013-02-13 16:38:00,
2013-02-13 11:43:00,42.6,42.1,29.70,ESE,112,0.0,0.0,98,0.00,,---,0.06,VWS V14.00,2013-02-13 16:43:00,
2013-02-13 11:48:00,42.9,42.4,29.69,ESE,112,0.0,0.0,98,0.00,,---,0.06,VWS V14.00,2013-02-13 16:48:00,
2013-02-13 11:53:00,42.9,42.4,29.69,ESE,112,0.0,0.0,98,0.00,,---,0.06,VWS V14.00,2013-02-13 16:53:00,
2013-02-13 11:58:00,42.9,42.4,29.69,ESE,112,0.0,0.0,98,0.00,,---,0.06,VWS V14.00,2013-02-13 16:58:00,
2013-02-13 12:03:00,42.9,42.4,29.69,ESE,112,0.0,0.0,98,0.00,,---,0.06,VWS V14.00,2013-02-13 17:03:00,
2013-02-13 12:08:00,42.8,42.3,29.69,ESE,112,0.0,0.0,98,0.00,,---,0.06,VWS V14.00,2013-02-13 17:08:00,
2013-02-13 12:13:00,42.9,42.4,29.69,ESE,112,0.0,0.0,98,0.00,,---,0.06,VWS V14.00,2013-02-13 17:13:00,
2013-02-13 12:18:00,42.9,42.4,29.69,ESE,112,0.0,0.0,98,0.00,,---,0.06,VWS V14.00,2013-02-13 17:18:00,
2013-02-13 12:23:00,42.9,42.4,29.68,ESE,112,0.0,0.0,98,0.00,,---,0.06,VWS V14.00,2013-02-13 17:23:00,
2013-02-13 12:28:00,42.9,42.4,29.67,ESE,112,0.0,0.0,98,0.00,,---,0.06,VWS V14.00,2013-02-13 17:28:00,
2013-02-13 12:33:00,42.9,42.4,29.67,ESE,112,0.0,0.0,98,0.00,,---,0.06,VWS V14.00,2013-02-13 17:33:00,
2013-02-13 12:38:00,43.5,43.2,29.66,ESE,112,0.0,0.0,99,0.00,,---,0.06,VWS V14.00,2013-02-13 17:38:00,
2013-02-13 12:43:00,43.8,43.5,29.65,ESE,112,0.0,0.0,99,0.00,,---,0.06,VWS V14.00,2013-02-13 17:43:00,
2013-02-13 12:48:00,44.2,43.7,29.65,ESE,112,0.0,0.0,98,0.00,,---,0.06,VWS V14.00,2013-02-13 17:48:00,
2013-02-13 12:53:00,44.4,43.9,29.66,ESE,112,0.0,0.0,98,0.00,,---,0.06,VWS V14.00,2013-02-13 17:53:00,
2013-02-13 12:58:00,44.6,44.1,29.65,East,90,0.0,0.0,98,0.00,,---,0.06,VWS V14.00,2013-02-13 17:58:00,
2013-02-13 13:03:00,44.6,44.1,29.66,East,90,0.0,0.0,98,0.00,,---,0.06,VWS V14.00,2013-02-13 18:03:00,
2013-02-13 13:08:00,44.7,44.2,29.64,East,90,0.0,0.0,98,0.00,,---,0.06,VWS V14.00,2013-02-13 18:08:00,
2013-02-13 13:13:00,44.7,44.2,29.64,East,90,0.0,0.0,98,0.00,,---,0.06,VWS V14.00,2013-02-13 18:13:00,
2013-02-13 13:18:00,45.1,44.6,29.64,East,90,0.0,0.0,98,0.00,,---,0.06,VWS V14.00,2013-02-13 18:18:00,
2013-02-13 13:24:00,46.2,45.9,29.64,ESE,112,0.0,0.0,99,0.00,,---,0.06,VWS V14.00,2013-02-13 18:24:00,
2013-02-13 13:29:00,46.7,46.2,29.64,ESE,112,0.0,0.0,98,0.00,,---,0.06,VWS V14.00,2013-02-13 18:29:00,
2013-02-13 13:34:00,47.3,46.8,29.63,ESE,112,0.0,0.0,98,0.00,,---,0.06,VWS V14.00,2013-02-13 18:34:00,
2013-02-13 13:39:00,48.5,48.0,29.63,West,270,0.0,0.0,98,0.00,,---,0.06,VWS V14.00,2013-02-13 18:39:00,
2013-02-13 13:44:00,49.2,48.4,29.63,SW,225,0.0,2.2,97,0.00,,---,0.06,VWS V14.00,2013-02-13 18:44:00,
2013-02-13 13:49:00,50.1,49.0,29.62,SSW,202,0.8,2.2,96,0.00,,---,0.06,VWS V14.00,2013-02-13 18:49:00,
2013-02-13 13:54:00,50.9,49.2,29.63,SE,135,0.0,0.0,94,0.00,,---,0.06,VWS V14.00,2013-02-13 18:54:00,
2013-02-13 13:59:00,51.0,49.3,29.62,SE,135,0.4,0.4,94,0.00,,---,0.06,VWS V14.00,2013-02-13 18:59:00,
2013-02-13 14:04:00,51.0,49.3,29.62,SE,135,0.0,0.0,94,0.00,,---,0.06,VWS V14.00,2013-02-13 19:04:00,
2013-02-13 14:09:00,51.4,49.5,29.63,ESE,112,0.0,2.2,93,0.00,,---,0.06,VWS V14.00,2013-02-13 19:09:00,
2013-02-13 14:14:00,51.4,49.2,29.63,NE,45,2.4,2.4,92,0.00,,---,0.06,VWS V14.00,2013-02-13 19:14:00,
2013-02-13 14:19:00,50.7,48.5,29.62,ENE,68,0.0,2.4,92,0.00,,---,0.06,VWS V14.00,2013-02-13 19:19:00,
2013-02-13 14:24:00,50.5,48.3,29.62,NE,45,3.3,3.3,92,0.00,,---,0.06,VWS V14.00,2013-02-13 19:24:00,
2013-02-13 14:29:00,50.1,47.6,29.62,NE,45,3.5,3.5,91,0.00,,---,0.06,VWS V14.00,2013-02-13 19:29:00,
2013-02-13 14:34:00,49.8,47.6,29.63,East,90,0.8,0.8,92,0.00,,---,0.06,VWS V14.00,2013-02-13 19:34:00,
2013-02-13 14:39:00,50.5,48.3,29.63,SE,135,0.0,1.3,92,0.00,,---,0.06,VWS V14.00,2013-02-13 19:39:00,
2013-02-13 14:44:00,50.9,48.7,29.62,NNE,22,0.0,0.8,92,0.00,,---,0.06,VWS V14.00,2013-02-13 19:44:00,
2013-02-13 14:49:00,51.0,48.5,29.62,SE,135,0.0,1.1,91,0.00,,---,0.06,VWS V14.00,2013-02-13 19:49:00,
2013-02-13 14:54:00,51.6,49.4,29.63,SE,135,0.0,2.0,92,0.00,,---,0.06,VWS V14.00,2013-02-13 19:54:00,
2013-02-13 14:59:00,51.9,49.4,29.61,SSE,158,0.0,2.0,91,0.00,,---,0.06,VWS V14.00,2013-02-13 19:59:00,
2013-02-13 15:04:00,51.9,49.1,29.61,SE,135,1.3,1.3,90,0.00,,---,0.06,VWS V14.00,2013-02-13 20:04:00,
2013-02-13 15:09:00,51.8,48.7,29.61,NE,45,0.0,1.3,89,0.00,,---,0.06,VWS V14.00,2013-02-13 20:09:00,
2013-02-13 15:14:00,51.6,48.5,29.61,NNW,338,0.0,0.0,89,0.00,,---,0.06,VWS V14.00,2013-02-13 20:14:00,
2013-02-13 15:19:00,51.8,48.4,29.61,SW,225,1.5,1.5,88,0.00,,---,0.06,VWS V14.00,2013-02-13 20:19:00,
2013-02-13 15:24:00,51.9,48.2,29.61,West,270,3.8,3.8,87,0.00,,---,0.06,VWS V14.00,2013-02-13 20:24:00,
2013-02-13 15:29:00,52.1,47.7,29.61,West,270,6.0,10.7,85,0.00,,---,0.06,VWS V14.00,2013-02-13 20:29:00,
2013-02-13 15:34:00,52.1,47.4,29.61,West,270,2.9,2.9,84,0.00,,---,0.06,VWS V14.00,2013-02-13 20:34:00,
2013-02-13 15:39:00,52.3,47.6,29.61,West,270,2.6,5.8,84,0.00,,---,0.06,VWS V14.00,2013-02-13 20:39:00,
2013-02-13 15:44:00,52.5,47.5,29.61,WSW,248,5.5,5.8,83,0.00,,---,0.06,VWS V14.00,2013-02-13 20:44:00,
2013-02-13 15:49:00,52.5,47.5,29.61,West,270,6.9,6.9,83,0.00,,---,0.06,VWS V14.00,2013-02-13 20:49:00,
2013-02-13 15:54:00,52.5,47.2,29.61,WNW,292,0.0,1.5,82,0.00,,---,0.06,VWS V14.00,2013-02-13 20:54:00,
2013-02-13 15:59:00,52.7,47.4,29.62,WSW,248,0.0,1.5,82,0.00,,---,0.06,VWS V14.00,2013-02-13 20:59:00,
2013-02-13 16:04:00,52.7,47.4,29.61,West,270,3.1,3.1,82,0.00,,---,0.06,VWS V14.00,2013-02-13 21:04:00,
2013-02-13 16:09:00,53.0,47.3,29.62,West,270,4.9,6.0,81,0.00,,---,0.06,VWS V14.00,2013-02-13 21:09:00,
2013-02-13 16:14:00,53.2,47.2,29.63,NNW,338,0.0,1.5,80,0.00,,---,0.06,VWS V14.00,2013-02-13 21:14:00,
2013-02-13 16:19:00,53.4,47.4,29.63,NW,315,0.0,2.4,80,0.00,,---,0.06,VWS V14.00,2013-02-13 21:19:00,
2013-02-13 16:24:00,53.7,47.3,29.63,WNW,292,0.8,3.1,79,0.00,,---,0.06,VWS V14.00,2013-02-13 21:24:00,
2013-02-13 16:29:00,53.9,47.5,29.63,WSW,248,0.0,3.1,79,0.00,,---,0.06,VWS V14.00,2013-02-13 21:29:00,
2013-02-13 16:34:00,54.1,47.7,29.64,West,270,3.5,4.0,79,0.00,,---,0.06,VWS V14.00,2013-02-13 21:34:00,
2013-02-13 16:39:00,54.1,47.7,29.64,West,270,0.0,4.0,79,0.00,,---,0.06,VWS V14.00,2013-02-13 21:39:00,
2013-02-13 16:44:00,54.1,47.4,29.64,WNW,292,2.6,2.9,78,0.00,,---,0.06,VWS V14.00,2013-02-13 21:44:00,
2013-02-13 16:49:00,53.9,46.9,29.64,NW,315,3.3,3.3,77,0.00,,---,0.06,VWS V14.00,2013-02-13 21:49:00,
2013-02-13 16:54:00,53.4,45.3,29.64,West,270,2.4,6.7,74,0.00,,---,0.06,VWS V14.00,2013-02-13 21:54:00,
2013-02-13 16:59:00,53.2,44.8,29.64,WNW,292,3.3,6.7,73,0.00,,---,0.06,VWS V14.00,2013-02-13 21:59:00,
2013-02-13 17:04:00,52.8,43.7,29.64,West,270,1.1,4.6,71,0.00,,---,0.06,VWS V14.00,2013-02-13 22:04:00,
2013-02-13 17:09:00,52.5,43.4,29.64,West,270,5.5,5.5,71,0.00,,---,0.06,VWS V14.00,2013-02-13 22:09:00,
2013-02-13 17:14:00,52.1,42.6,29.65,West,270,2.9,5.5,70,0.00,,---,0.06,VWS V14.00,2013-02-13 22:14:00,
2013-02-13 17:19:00,51.6,42.2,29.65,West,270,2.9,5.5,70,0.00,,---,0.06,VWS V14.00,2013-02-13 22:19:00,
2013-02-13 17:24:00,51.4,42.0,29.65,WNW,292,3.5,4.9,70,0.00,,---,0.06,VWS V14.00,2013-02-13 22:24:00,
2013-02-13 17:29:00,50.7,41.7,29.66,West,270,1.7,5.8,71,0.00,,---,0.06,VWS V14.00,2013-02-13 22:29:00,
2013-02-13 17:34:00,50.5,41.8,29.66,WNW,292,1.3,3.8,72,0.00,,---,0.06,VWS V14.00,2013-02-13 22:34:00,
2013-02-13 17:39:00,50.1,41.8,29.67,NW,315,4.9,4.9,73,0.00,,---,0.06,VWS V14.00,2013-02-13 22:39:00,
2013-02-13 17:44:00,49.8,41.5,29.68,WNW,292,3.5,3.5,73,0.00,,---,0.06,VWS V14.00,2013-02-13 22:44:00,
2013-02-13 17:49:00,49.4,41.1,29.69,NW,315,1.1,3.5,73,0.00,,---,0.06,VWS V14.00,2013-02-13 22:49:00,
2013-02-13 17:54:00,49.1,40.8,29.69,NW,315,3.1,3.8,73,0.00,,---,0.06,VWS V14.00,2013-02-13 22:54:00,
2013-02-13 17:59:00,48.7,40.8,29.69,NNW,338,4.0,4.0,74,0.00,,---,0.06,VWS V14.00,2013-02-13 22:59:00,
2013-02-13 18:04:00,48.3,40.4,29.69,NW,315,1.3,4.0,74,0.00,,---,0.06,VWS V14.00,2013-02-13 23:04:00,
2013-02-13 18:09:00,48.0,40.5,29.70,West,270,6.0,6.0,75,0.00,,---,0.06,VWS V14.00,2013-02-13 23:09:00,
2013-02-13 18:14:00,47.4,40.2,29.71,NE,45,1.1,2.4,76,0.00,,---,0.06,VWS V14.00,2013-02-13 23:14:00,
2013-02-13 18:19:00,47.1,39.9,29.71,NW,315,0.0,2.4,76,0.00,,---,0.06,VWS V14.00,2013-02-13 23:19:00,
2013-02-13 18:24:00,46.5,39.7,29.72,NE,45,0.0,1.1,77,0.00,,---,0.06,VWS V14.00,2013-02-13 23:24:00,
2013-02-13 18:29:00,45.6,39.2,29.72,NW,315,0.6,4.0,78,0.00,,---,0.06,VWS V14.00,2013-02-13 23:29:00,
2013-02-13 18:34:00,45.1,38.7,29.72,WNW,292,4.2,4.2,78,0.00,,---,0.06,VWS V14.00,2013-02-13 23:34:00,
2013-02-13 18:40:00,44.4,38.0,29.72,NW,315,0.0,4.2,78,0.00,,---,0.06,VWS V14.00,2013-02-13 23:40:00,
2013-02-13 18:45:00,43.7,38.0,29.73,NW,315,2.4,2.4,80,0.00,,---,0.06,VWS V14.00,2013-02-13 23:45:00,
2013-02-13 18:50:00,43.3,37.6,29.74,North,0,0.0,6.7,80,0.00,,---,0.06,VWS V14.00,2013-02-13 23:50:00,
2013-02-13 18:55:00,42.9,37.5,29.74,WNW,292,0.0,4.4,81,0.00,,---,0.06,VWS V14.00,2013-02-13 23:55:00,
2013-02-13 19:00:00,42.0,36.9,29.75,NE,45,3.1,4.4,82,0.00,,---,0.06,VWS V14.00,2013-02-14 00:00:00,
2013-02-13 19:05:00,41.7,36.9,29.75,West,270,2.9,3.3,83,0.00,,---,0.06,VWS V14.00,2013-02-14 00:05:00,
2013-02-13 19:10:00,41.3,36.5,29.75,NW,315,3.1,3.3,83,0.00,,---,0.06,VWS V14.00,2013-02-14 00:10:00,
2013-02-13 19:15:00,40.8,36.3,29.75,NW,315,2.2,2.2,84,0.00,,---,0.06,VWS V14.00,2013-02-14 00:15:00,
2013-02-13 19:20:00,40.2,36.1,29.75,WNW,292,2.9,4.2,85,0.00,,---,0.06,VWS V14.00,2013-02-14 00:20:00,
2013-02-13 19:25:00,40.1,36.0,29.75,WNW,292,0.8,2.9,85,0.00,,---,0.06,VWS V14.00,2013-02-14 00:25:00,
2013-02-13 19:30:00,39.7,35.9,29.76,WNW,292,0.0,2.9,86,0.00,,---,0.06,VWS V14.00,2013-02-14 00:30:00,
2013-02-13 19:35:00,39.3,35.5,29.76,WNW,292,2.2,2.2,86,0.00,,---,0.06,VWS V14.00,2013-02-14 00:35:00,
2013-02-13 19:40:00,39.2,35.7,29.77,WNW,292,3.8,3.8,87,0.00,,---,0.06,VWS V14.00,2013-02-14 00:40:00,
2013-02-13 19:45:00,38.8,35.3,29.77,NW,315,0.0,0.8,87,0.00,,---,0.06,VWS V14.00,2013-02-14 00:45:00,
2013-02-13 19:50:00,38.8,35.6,29.76,NW,315,1.3,3.5,88,0.00,,---,0.06,VWS V14.00,2013-02-14 00:50:00,
2013-02-13 19:55:00,38.4,35.2,29.76,NNW,338,3.3,3.3,88,0.00,,---,0.06,VWS V14.00,2013-02-14 00:55:00,
2013-02-13 20:00:00,38.3,35.1,29.76,NNW,338,0.0,3.3,88,0.00,,---,0.06,VWS V14.00,2013-02-14 01:00:00,
2013-02-13 20:05:00,38.1,34.9,29.76,NNW,338,0.0,0.8,88,0.00,,---,0.06,VWS V14.00,2013-02-14 01:05:00,
2013-02-13 20:10:00,37.9,34.7,29.77,NNW,338,0.6,0.8,88,0.00,,---,0.06,VWS V14.00,2013-02-14 01:10:00,
2013-02-13 20:15:00,37.7,34.5,29.77,NNW,338,1.7,4.4,88,0.00,,---,0.06,VWS V14.00,2013-02-14 01:15:00,
2013-02-13 20:20:00,37.5,34.3,29.77,WNW,292,3.3,4.4,88,0.00,,---,0.06,VWS V14.00,2013-02-14 01:20:00,
2013-02-13 20:25:00,37.5,34.3,29.77,WNW,292,0.0,3.3,88,0.00,,---,0.06,VWS V14.00,2013-02-14 01:25:00,
2013-02-13 20:30:00,37.4,34.2,29.78,WNW,292,2.4,3.3,88,0.00,,---,0.06,VWS V14.00,2013-02-14 01:30:00,
2013-02-13 20:35:00,37.4,34.2,29.78,WNW,292,4.0,4.0,88,0.00,,---,0.06,VWS V14.00,2013-02-14 01:35:00,
2013-02-13 20:40:00,37.2,34.0,29.78,WNW,292,0.6,4.0,88,0.00,,---,0.06,VWS V14.00,2013-02-14 01:40:00,
2013-02-13 20:45:00,37.2,34.0,29.79,North,0,0.0,1.3,88,0.00,,---,0.06,VWS V14.00,2013-02-14 01:45:00,
2013-02-13 20:50:00,37.2,34.3,29.79,NNW,338,0.0,2.6,89,0.00,,---,0.06,VWS V14.00,2013-02-14 01:50:00,
2013-02-13 20:55:00,36.8,33.9,29.79,NW,315,1.1,2.2,89,0.00,,---,0.06,VWS V14.00,2013-02-14 01:55:00,
2013-02-13 21:00:00,36.6,33.7,29.79,NNW,338,1.7,2.6,89,0.00,,---,0.06,VWS V14.00,2013-02-14 02:00:00,
2013-02-13 21:05:00,36.5,33.6,29.79,NNW,338,0.6,1.7,89,0.00,,---,0.06,VWS V14.00,2013-02-14 02:05:00,
2013-02-13 21:10:00,36.3,33.4,29.80,NNE,22,0.0,7.1,89,0.00,,---,0.06,VWS V14.00,2013-02-14 02:10:00,
2013-02-13 21:15:00,36.1,33.5,29.80,NW,315,0.8,4.4,90,0.00,,---,0.06,VWS V14.00,2013-02-14 02:15:00,
2013-02-13 21:20:00,35.9,33.3,29.81,NE,45,0.6,4.4,90,0.00,,---,0.06,VWS V14.00,2013-02-14 02:20:00,
2013-02-13 21:25:00,35.7,33.1,29.81,NE,45,1.3,6.4,90,0.00,,---,0.06,VWS V14.00,2013-02-14 02:25:00,
2013-02-13 21:30:00,35.4,32.8,29.81,NNE,22,0.0,6.4,90,0.00,,---,0.06,VWS V14.00,2013-02-14 02:30:00,
2013-02-13 21:35:00,35.4,32.8,29.81,NNE,22,1.3,1.5,90,0.00,,---,0.06,VWS V14.00,2013-02-14 02:35:00,
2013-02-13 21:40:00,35.2,32.6,29.81,NNE,22,0.0,1.5,90,0.00,,---,0.06,VWS V14.00,2013-02-14 02:40:00,
2013-02-13 21:45:00,35.0,32.4,29.82,NNW,338,2.2,2.2,90,0.00,,---,0.06,VWS V14.00,2013-02-14 02:45:00,
2013-02-13 21:50:00,34.8,32.2,29.82,WNW,292,5.3,5.3,90,0.00,,---,0.06,VWS V14.00,2013-02-14 02:50:00,
2013-02-13 21:55:00,34.8,32.2,29.82,NNW,338,1.1,5.3,90,0.00,,---,0.06,VWS V14.00,2013-02-14 02:55:00,
2013-02-13 22:00:00,34.8,32.2,29.82,NNE,22,2.9,2.9,90,0.00,,---,0.06,VWS V14.00,2013-02-14 03:00:00,
2013-02-13 22:05:00,34.7,32.1,29.82,NW,315,3.1,3.1,90,0.00,,---,0.06,VWS V14.00,2013-02-14 03:05:00,
2013-02-13 22:10:00,34.5,31.9,29.82,NW,315,2.9,2.9,90,0.00,,---,0.06,VWS V14.00,2013-02-14 03:10:00,
2013-02-13 22:15:00,34.3,31.7,29.82,NW,315,3.3,3.3,90,0.00,,---,0.06,VWS V14.00,2013-02-14 03:15:00,
2013-02-13 22:20:00,34.3,31.7,29.82,NW,315,0.0,0.0,90,0.00,,---,0.06,VWS V14.00,2013-02-14 03:20:00,
2013-02-13 22:25:00,34.3,31.7,29.82,NW,315,1.3,1.3,90,0.00,,---,0.06,VWS V14.00,2013-02-14 03:25:00,
2013-02-13 22:30:00,34.3,31.7,29.82,NW,315,0.4,0.4,90,0.00,,---,0.06,VWS V14.00,2013-02-14 03:30:00,
2013-02-13 22:35:00,34.3,31.7,29.82,NW,315,1.1,1.1,90,0.00,,---,0.06,VWS V14.00,2013-02-14 03:35:00,
2013-02-13 22:40:00,34.3,31.7,29.83,NNE,22,1.7,1.7,90,0.00,,---,0.06,VWS V14.00,2013-02-14 03:40:00,
2013-02-13 22:45:00,34.1,31.5,29.83,NNE,22,1.5,1.7,90,0.00,,---,0.06,VWS V14.00,2013-02-14 03:45:00,
2013-02-13 22:50:00,33.9,31.6,29.83,NE,45,0.6,0.6,91,0.00,,---,0.06,VWS V14.00,2013-02-14 03:50:00,
2013-02-13 22:55:00,33.9,31.6,29.83,NNW,338,0.0,1.3,91,0.00,,---,0.06,VWS V14.00,2013-02-14 03:55:00,
2013-02-13 23:00:00,33.9,31.6,29.84,NNW,338,2.4,2.4,91,0.00,,---,0.06,VWS V14.00,2013-02-14 04:00:00,
2013-02-13 23:05:00,33.8,31.5,29.83,NNW,338,2.6,2.6,91,0.00,,---,0.06,VWS V14.00,2013-02-14 04:05:00,
2013-02-13 23:10:00,33.6,31.3,29.84,NNW,338,0.0,0.0,91,0.00,,---,0.06,VWS V14.00,2013-02-14 04:10:00,
2013-02-13 23:15:00,33.6,31.3,29.84,NNW,338,1.3,1.3,91,0.00,,---,0.06,VWS V14.00,2013-02-14 04:15:00,
2013-02-13 23:20:00,33.6,31.3,29.84,NNW,338,0.0,0.0,91,0.00,,---,0.06,VWS V14.00,2013-02-14 04:20:00,
2013-02-13 23:25:00,33.4,31.1,29.85,NNW,338,0.0,0.0,91,0.00,,---,0.06,VWS V14.00,2013-02-14 04:25:00,
2013-02-13 23:30:00,33.2,30.9,29.85,NNW,338,0.0,0.0,91,0.00,,---,0.06,VWS V14.00,2013-02-14 04:30:00,
2013-02-13 23:35:00,33.0,30.7,29.85,NNW,338,0.0,0.0,91,0.00,,---,0.06,VWS V14.00,2013-02-14 04:35:00,
2013-02-13 23:40:00,32.9,30.8,29.85,NNW,338,0.0,0.0,92,0.00,,---,0.06,VWS V14.00,2013-02-14 04:40:00,
2013-02-13 23:45:00,32.7,30.6,29.85,NNW,338,0.0,0.0,92,0.00,,---,0.06,VWS V14.00,2013-02-14 04:45:00,
2013-02-13 23:51:00,32.7,30.6,29.85,NNW,338,0.0,0.0,92,0.00,,---,0.06,VWS V14.00,2013-02-14 04:51:00,
2013-02-13 23:56:00,32.7,30.6,29.85,NNW,338,0.0,0.0,92,0.00,,---,0.06,VWS V14.00,2013-02-14 04:56:00,